User: anonymous   Login
Location: Unspecified
(0.0000°N, 0.0000°E)
Time: 08:25:17
(UTC+00:00)
Language:

DELFI C3 - Orbit

View from above orbital plane
View from above orbital plane
View from above satellite
View from above satellite

Ground track
Ground track

The orbit data is extracted from the following two-line orbital elements,

1 32789U 08021G   19288.13586623  .00001328  00000-0  92142-4 0  9998
2 32789  97.4525 334.1628 0013715  82.4127 277.8658 15.07173699624802
Epoch (UTC): 15 October 2019 03:15:38
Eccentricity: 0.0013715
inclination: 97.4525°
perigee height: 535 km
apogee height: 554 km
right ascension of ascending node: 334.1628°
argument of perigee: 82.4127°
revolutions per day: 15.07173699
mean anomaly at epoch: 277.8658°
orbit number at epoch: 62480

The dashed part of the orbit path shows where the satellite is in the earth's shadow,  

DLR